International Virtual Aviation Organisation

Russian Federation and Kazakhstan MCD

 

Карточка аэропорта UAII

Внимание!
Информация на этой странице в стадии наполнения.
Если вы не увидели какой-то информации, или заметили неточность - пожалуйста сообщите нам!
Спасибо!
Команда RU-STAFF
Название аэропортаШымкент
Название аэропорта (англ.)Shymkent
Превышение1389 ft. (423.4 m.)
Координаты42°21.348', 69°28.734'
Высота перехода5000
Эшелон переходаFL70
Коды ответчика3430-3437, 3530-3537
Зона ОрВДШымкент РПИ (UAII)
Данные METARUAII 170830Z 34003MPS 310V020 CAVOK 04/M04 Q1033 R28/0///70 NOSIG RMK QFE737/0983
Проноз погоды (TAF)UAII 170500Z 1706/1806 30003G08MPS 6000 SCT050 BKN100 TX06/1709Z TNM01/1801Z TEMPO 1706/1713 35003G08MPS SCT030 TEMPO 1715/1802 12004MPS 3100 BR FU SCT010 BKN020
NOTAMshow/hide NOTAM
AWOS   TABLE

Информация о ВПП

ВПП Длина ВПП (м.) Покрытие Курс ВПП Частота ILS
103300Железобетон106111.7
283300Железобетон286110.3

Диспетчерские позиции




Спутниковое изображение